When you browse on this site, cookies collect data to enhance your experience and personalize the content and advertising you see.
Visit our Privacy Policy to learn more. By continuing to use the site, you agree to this use of cookies and data.
  • En España
  • Lista de países
  • Para 7 días
  • Temperatura del agua
  • Mapa Satelital
  • El tiempo en el mapa
  • Informadores
  • user-avatar
    Iniciar sesión

    Tiempo cada hora Smolan

    Hoy, 18 Enero, Viernes

    Tiempo Temperatura Precipitaciones Viento Presión Humedad
    00:00 -2°C° 0 mm 1 mps 652 mmHg 64%
    01:00 -4°C° 0 mm 2 mps 652 mmHg 63%
    02:00 -4°C° 0 mm 2 mps 652 mmHg 61%
    03:00 -4°C° 0 mm 2 mps 651 mmHg 61%
    04:00 -4°C° 0 mm 2 mps 651 mmHg 61%
    05:00 -4°C° 0 mm 2 mps 651 mmHg 61%
    06:00 -4°C° 0 mm 2 mps 651 mmHg 60%
    07:00 -4°C° 0 mm 2 mps 651 mmHg 60%
    08:00 -4°C° 0 mm 2 mps 651 mmHg 58%
    09:00 0°C° 0 mm 1 mps 652 mmHg 66%
    10:00 +2°C° 0 mm 1 mps 653 mmHg 73%
    11:00 +3°C° 0 mm 1 mps 653 mmHg 81%
    12:00 +4°C° 0 mm 1 mps 653 mmHg 82%
    13:00 +4°C° 0 mm 1 mps 653 mmHg 83%
    14:00 +4°C° 0 mm 1 mps 653 mmHg 84%
    15:00 +3°C° 0 mm 1 mps 652 mmHg 85%
    16:00 +2°C° 0 mm 1 mps 652 mmHg 85%
    17:00 +1°C° 0 mm 1 mps 652 mmHg 86%
    18:00 0°C° 0 mm 1 mps 652 mmHg 83%
    19:00 -3°C° 0 mm 2 mps 651 mmHg 80%
    20:00 -3°C° 0 mm 2 mps 651 mmHg 77%
    21:00 -3°C° 0 mm 2 mps 651 mmHg 76%
    22:00 -3°C° 0 mm 2 mps 651 mmHg 76%
    23:00 -3°C° 0 mm 2 mps 651 mmHg 75%

    Mañana, 19 Enero, Sábado

    Tiempo Temperatura Precipitaciones Viento Presión Humedad
    00:00 -1°C° 0 mm 1 mps 652 mmHg 76%
    01:00 -1°C° 0 mm 1 mps 652 mmHg 77%
    02:00 0°C° 0 mm 1 mps 652 mmHg 78%
    03:00 0°C° 0 mm 1 mps 652 mmHg 79%
    04:00 0°C° 0 mm 1 mps 652 mmHg 80%
    05:00 0°C° 0 mm 1 mps 652 mmHg 81%
    06:00 0°C° 0 mm 1 mps 652 mmHg 82%
    07:00 0°C° 0 mm 1 mps 653 mmHg 82%
    08:00 -1°C° 0 mm 0 mps 653 mmHg 83%
    09:00 0°C° 0 mm 0 mps 653 mmHg 84%
    10:00 +1°C° 0 mm 0 mps 654 mmHg 85%
    11:00 +2°C° 0 mm 0 mps 654 mmHg 87%
    12:00 +4°C° 0.1 mm 1 mps 654 mmHg 88%
    13:00 +4°C° 0.1 mm 1 mps 654 mmHg 89%
    14:00 +4°C° 0.1 mm 1 mps 654 mmHg 90%
    15:00 +3°C° 0.1 mm 1 mps 654 mmHg 92%
    16:00 +2°C° 0.1 mm 1 mps 653 mmHg 94%
    17:00 +2°C° 0.1 mm 1 mps 653 mmHg 96%
    18:00 +2°C° 0.1 mm 1 mps 653 mmHg 96%
    19:00 +1°C° 0.1 mm 1 mps 653 mmHg 96%
    20:00 0°C° 0.1 mm 0 mps 653 mmHg 96%
    21:00 0°C° 0.3 mm 0 mps 654 mmHg 96%
    22:00 0°C° 0.3 mm 0 mps 654 mmHg 95%
    23:00 0°C° 0.3 mm 0 mps 654 mmHg 95%

    Pasado mañana, 20 Enero, Domingo

    Tiempo Temperatura Precipitaciones Viento Presión Humedad
    00:00 0°C° 0.1 mm 0 mps 654 mmHg 95%
    01:00 +1°C° 0.1 mm 1 mps 653 mmHg 95%
    02:00 +1°C° 0.1 mm 1 mps 653 mmHg 95%
    03:00 +1°C° 0.1 mm 1 mps 653 mmHg 96%
    04:00 +1°C° 0.1 mm 1 mps 653 mmHg 96%
    05:00 +1°C° 0.1 mm 1 mps 653 mmHg 96%
    06:00 +1°C° 0.2 mm 1 mps 653 mmHg 97%
    07:00 +1°C° 0.2 mm 1 mps 653 mmHg 97%
    08:00 +1°C° 0.2 mm 1 mps 653 mmHg 97%
    09:00 +2°C° 0.1 mm 1 mps 653 mmHg 97%
    10:00 +2°C° 0.1 mm 1 mps 653 mmHg 96%
    11:00 +3°C° 0.1 mm 1 mps 653 mmHg 96%
    12:00 +3°C° 0.1 mm 1 mps 652 mmHg 95%
    13:00 +3°C° 0.1 mm 1 mps 652 mmHg 95%
    14:00 +3°C° 0.1 mm 1 mps 652 mmHg 94%
    15:00 +3°C° 0 mm 1 mps 651 mmHg 95%
    16:00 +3°C° 0 mm 1 mps 651 mmHg 95%
    17:00 +2°C° 0 mm 1 mps 651 mmHg 96%
    18:00 +2°C° 0 mm 1 mps 651 mmHg 96%
    19:00 +1°C° 0 mm 1 mps 651 mmHg 95%
    20:00 0°C° 0 mm 1 mps 651 mmHg 95%
    21:00 0°C° 0 mm 1 mps 651 mmHg 94%
    22:00 0°C° 0 mm 1 mps 651 mmHg 94%
    23:00 -1°C° 0 mm 1 mps 650 mmHg 93%

    21 Enero, Lunes

    Tiempo Temperatura Precipitaciones Viento Presión Humedad
    00:00 -1°C° 0 mm 1 mps 650 mmHg 92%
    01:00 -1°C° 0 mm 1 mps 651 mmHg 91%
    02:00 -1°C° 0 mm 1 mps 651 mmHg 91%
    03:00 -1°C° 0 mm 1 mps 650 mmHg 90%
    04:00 -1°C° 0 mm 1 mps 650 mmHg 89%
    05:00 -1°C° 0 mm 1 mps 650 mmHg 88%
    06:00 -1°C° 0 mm 1 mps 650 mmHg 88%
    07:00 -2°C° 0 mm 1 mps 651 mmHg 88%
    08:00 -2°C° 0 mm 1 mps 651 mmHg 88%
    09:00 0°C° 0 mm 1 mps 652 mmHg 88%
    10:00 +1°C° 0 mm 1 mps 653 mmHg 88%
    11:00 +3°C° 0 mm 1 mps 654 mmHg 89%
    12:00 +3°C° 0.1 mm 1 mps 653 mmHg 89%
    13:00 +3°C° 0.1 mm 1 mps 653 mmHg 89%
    14:00 +3°C° 0.1 mm 1 mps 653 mmHg 89%
    15:00 +3°C° 0.2 mm 1 mps 653 mmHg 91%
    16:00 +2°C° 0.2 mm 1 mps 653 mmHg 92%
    17:00 +2°C° 0.2 mm 1 mps 653 mmHg 94%
    18:00 +1°C° 0.2 mm 1 mps 654 mmHg 95%
    19:00 +1°C° 0.2 mm 1 mps 654 mmHg 96%
    20:00 0°C° 0.2 mm 0 mps 654 mmHg 96%
    21:00 0°C° 0.2 mm 1 mps 655 mmHg 97%
    22:00 0°C° 0.2 mm 1 mps 655 mmHg 97%
    23:00 0°C° 0.2 mm 1 mps 655 mmHg 97%

    22 Enero, Martes

    Tiempo Temperatura Precipitaciones Viento Presión Humedad
    00:00 0°C° 0.1 mm 1 mps 655 mmHg 97%
    01:00 0°C° 0.1 mm 1 mps 655 mmHg 97%
    02:00 -1°C° 0.1 mm 1 mps 655 mmHg 97%
    03:00 -1°C° 0.1 mm 1 mps 655 mmHg 97%
    04:00 -2°C° 0.1 mm 0 mps 654 mmHg 97%
    05:00 -2°C° 0.1 mm 0 mps 654 mmHg 97%
    06:00 -3°C° 0.1 mm 0 mps 654 mmHg 97%
    07:00 -2°C° 0.1 mm 1 mps 654 mmHg 97%
    08:00 -2°C° 0.1 mm 1 mps 654 mmHg 96%
    09:00 -1°C° 0.2 mm 1 mps 654 mmHg 94%
    10:00 0°C° 0.2 mm 1 mps 654 mmHg 92%
    11:00 +1°C° 0.2 mm 1 mps 654 mmHg 90%
    12:00 +1°C° 0.1 mm 1 mps 654 mmHg 90%
    13:00 +1°C° 0.1 mm 1 mps 653 mmHg 90%
    14:00 -1°C° 0.1 mm 2 mps 653 mmHg 91%
    15:00 +1°C° 0.1 mm 1 mps 652 mmHg 92%
    16:00 +1°C° 0.1 mm 1 mps 652 mmHg 93%
    17:00 0°C° 0.1 mm 1 mps 651 mmHg 95%
    18:00 0°C° 0 mm 1 mps 651 mmHg 95%
    19:00 0°C° 0 mm 1 mps 650 mmHg 96%
    20:00 -1°C° 0 mm 1 mps 650 mmHg 97%
    21:00 -1°C° 0 mm 1 mps 649 mmHg 97%
    22:00 0°C° 0 mm 1 mps 649 mmHg 96%
    23:00 0°C° 0 mm 1 mps 648 mmHg 96%

    23 Enero, Miércoles

    Tiempo Temperatura Precipitaciones Viento Presión Humedad
    00:00 0°C° 0.3 mm 1 mps 648 mmHg 96%
    01:00 0°C° 0.3 mm 1 mps 647 mmHg 96%
    02:00 0°C° 0.3 mm 1 mps 646 mmHg 96%
    03:00 0°C° 1.6 mm 1 mps 645 mmHg 97%
    04:00 0°C° 1.6 mm 1 mps 645 mmHg 97%
    05:00 +1°C° 1.6 mm 1 mps 644 mmHg 97%
    06:00 +1°C° 0.9 mm 1 mps 643 mmHg 96%
    07:00 +1°C° 0.9 mm 1 mps 643 mmHg 96%
    08:00 +1°C° 0.9 mm 1 mps 642 mmHg 95%
    09:00 -1°C° 0.1 mm 2 mps 642 mmHg 96%
    10:00 0°C° 0.1 mm 3 mps 642 mmHg 96%
    11:00 +1°C° 0.1 mm 3 mps 642 mmHg 96%
    12:00 0°C° 0.1 mm 4 mps 642 mmHg 95%
    13:00 0°C° 0.1 mm 4 mps 641 mmHg 94%
    14:00 0°C° 0.1 mm 4 mps 641 mmHg 93%
    15:00 -1°C° 0.1 mm 4 mps 640 mmHg 92%
    16:00 -1°C° 0.1 mm 4 mps 640 mmHg 91%
    17:00 -2°C° 0.1 mm 4 mps 640 mmHg 90%
    18:00 -1°C° 0 mm 3 mps 639 mmHg 91%
    19:00 -2°C° 0 mm 3 mps 639 mmHg 92%
    20:00 -2°C° 0 mm 3 mps 639 mmHg 93%
    21:00 -2°C° 0 mm 3 mps 639 mmHg 94%
    22:00 -3°C° 0 mm 2 mps 639 mmHg 94%
    23:00 -3°C° 0 mm 2 mps 639 mmHg 94%
    Mostrar más